Location: Unspecified
(0.0000°N, 0.0000°E)
Time: 17:53:46
(UTC+00:00)

STARLINK 1068 - Pass Details

Date: 17 January 2020
Orbit: 437 x 439 km, 53.0° (Epoch: 18 January)

Event Time Altitude Azimuth Distance (km) Brightness Sun altitude
Rises 05:21:28 0° 208° (SSW) 2,412 6.8 -11.3°
Maximum altitude 05:27:01 59° 124° (SE) 508 3.8 -10.0°
Drops below altitude 10° 05:30:25 10° 44° (NE) 1,534 6.2 -9.2°
Sets 05:32:32 0° 40° (NE) 2,399 7.2 -8.7°
